Regional Weather Roundup
Issued by NWS

Home | Current Version | Previous Version | Graphics & Text | Print | Product List | Glossary On
Versions: 1 2 3 4 5 6 7 8 9 10 11 12 13 14 15 16 17 18 19 20 21 22 23 24 25 26 27 28 29 30 31 32 33 34 35 36 37 38 39 40 41 42 43 44 45 46 47 48 49 50
000
ASUS43 KDMX 191806
RWRIA

WEATHER ROUNDUP FOR IOWA
NATIONAL WEATHER SERVICE DES MOINES IA
100 PM CDT TUE SEP 19 2017

NOTE: "FAIR" INDICATES FEW OR NO CLOUDS BELOW 12,000 FEET WITH NO
SIGNIFICANT WEATHER AND/OR OBSTRUCTIONS TO VISIBILITY.

* - THESE STATIONS ARE NOT NWS STATIONS...THUS NOT UNDER NWS
QUALITY CONTROL.  THEY ALSO DO NOT REPORT WEATHER SUCH
AS PRECIPITATION OR FOG.

IAZ001>003-012>014-020>022-031>034-043>046-191900-
   NORTHWEST IOWA

CITY           SKY/WX    TMP DP  RH WIND       PRES   REMARKS
CARROLL *      CLOUDY    73  68  83 SE12G22   29.82F
CHEROKEE *     PTSUNNY   74  70  86 SE14      29.77F
DENISON *      MOSUNNY   79  70  73 SE16      29.79F HX  81
LE MARS *      SUNNY     77  70  78 SE13G21   29.71F
ORANGE CITY *  SUNNY     77  72  83 SE15      29.73F
SHELDON *      PTSUNNY   75  68  78 MISG      29.73F
SIOUX CITY     SUNNY     80  70  71 S17G28    29.70F HX  83
6HR MIN TEMP:  66; 6HR MAX TEMP:  80;

SPENCER        CLOUDY    73  66  78 SE23      29.80F
6HR MIN TEMP:  65; 6HR MAX TEMP:  73;

STORM LAKE *   PTSUNNY   72  68  88 SE13G21   29.81F
$$

IAZ055>058-069>071-079>083-090>094-191900-
   SOUTHWEST IOWA

CITY           SKY/WX    TMP DP  RH WIND       PRES   REMARKS
ATLANTIC *     SUNNY     79  70  73 SE12G20   29.80F HX  81
AUDUBON *      MOSUNNY   79  72  78 SE14G21   29.82F HX  82
CLARINDA *     SUNNY     82  70  65 S13G20    29.81F HX  86
COUNCIL BLFS * SUNNY     82  72  69 SE17G25   29.75F HX  87
CRESTON *      SUNNY     77 -33   1 SE17      29.86F
HARLAN  *      SUNNY     81  70  69 SE15G23   29.81F HX  84
LAMONI         MOSUNNY   78  68  71 SE13      29.87F HX  80
6HR MIN TEMP:  64; 6HR MAX TEMP:  78;

RED OAK *      SUNNY     82  68  61 SE15G21   29.78F HX  85
SHENANDOAH *   SUNNY     84  68  58 SE15G26   29.76F HX  87
$$

IAZ047>049-059>061-072>074-084-191900-
   CENTRAL IOWA

CITY           SKY/WX    TMP DP  RH WIND       PRES   REMARKS
AMES           MOSUNNY   77  68  73 S16G25    29.86F
6HR MIN TEMP:  62; 6HR MAX TEMP:  77;

ANKENY *       MOSUNNY   77  68  73 SE14G20   29.87F
BOONE *        CLOUDY    79  66  65 SE15G25   29.86S HX  81
CHARITON *     PTSUNNY   79  70  73 SE13      29.88F HX  81
DES MOINES     PTSUNNY   78  68  71 S12       29.86F HX  80
6HR MIN TEMP:  62; 6HR MAX TEMP:  79;

GRINNELL*      MOSUNNY   74  66  75 SE15      29.92F
KNOXVILLE *    PTSUNNY   79  68  69 S9G23     29.88F HX  81
MARSHALLTOWN   PTSUNNY   74  67  78 SE16      29.90S
6HR MIN TEMP:  61; 6HR MAX TEMP:  76;

NEWTON *       SUNNY     75  68  78 SE14G21   29.89F
PELLA *        SUNNY     78  66  67 SE9       29.91S HX  80
PERRY *        CLOUDY    74  69  82 SE12      29.86S
$$

IAZ004>006-015-016-023>025-035-036-191900-
   NORTH CENTRAL IOWA

CITY           SKY/WX    TMP DP  RH WIND       PRES   REMARKS
ALGONA *       PTSUNNY   72  68  88 S16       29.84F
CLARION *      CLOUDY    77  68  73 SE15G24   29.86F
ESTHERVILLE    CLOUDY    73  66  78 SE22G29   29.81F
6HR MIN TEMP:  63; 6HR MAX TEMP:  74;

FORT DODGE *   CLOUDY    74  66  76 S10G18    29.85F
MASON CITY     PTSUNNY   77  63  61 SE16      29.89F
6HR MIN TEMP:  60; 6HR MAX TEMP:  77;

FOREST CITY *    N/A     75  64  69 SE17G24   29.87F
IOWA FALLS *     N/A     76  66  71 SE13G21   29.90S
$$

IAZ007>011-017>019-026>030-037>042-050>054-066-191900-
   NORTHEAST IOWA

CITY           SKY/WX    TMP DP  RH WIND       PRES   REMARKS
CEDAR RAPIDS   CLOUDY    71  66  84 SE10      29.94F
6HR MIN TEMP:  61; 6HR MAX TEMP:  71;

CHARLES CITY * SUNNY     77  66  69 S13       29.91F
CLINTON *      MOSUNNY   73  65  75 E10       29.97S
DECORAH *      MOSUNNY   75  63  64 S8G15     29.92F
DUBUQUE        MOSUNNY   75  64  68 E10       29.96F
6HR MIN TEMP:  57; 6HR MAX TEMP:  75;

MONTICELLO *   PTSUNNY   75  66  73 VRB5      29.94F
OELWEIN *      MOSUNNY   77  66  69 SE13      29.93F
WATERLOO       CLOUDY    72  63  73 SE13      29.91F
6HR MIN TEMP:  57; 6HR MAX TEMP:  72;

$$

IAZ064-065-067-068-078-191900-
   EAST CENTRAL IOWA

CITY           SKY/WX    TMP DP  RH WIND       PRES   REMARKS
DAVENPORT      SUNNY     76  64  66 E10       29.97S
6HR MIN TEMP:  60; 6HR MAX TEMP:  76;

IOWA CITY      LGT RAIN  75  67  76 SE8       29.96S
6HR MIN TEMP:  64; 6HR MAX TEMP:  75; 6HR PCP: TRACE;

MUSCATINE *    PTSUNNY   75  66  73 S7        29.94F
QUAD CITIES    SUNNY     77  64  64 E6        29.95S
6HR MIN TEMP:  62; 6HR MAX TEMP:  77;

$$

IAZ062-063-075>077-085>089-095>099-191900-
   SOUTHEAST IOWA

CITY           SKY/WX    TMP DP  RH WIND       PRES   REMARKS
BURLINGTON     PTSUNNY   73  67  81 S3        29.94F
6HR MIN TEMP:  64; 6HR MAX TEMP:  73;

FAIRFIELD *    CLOUDY    77  68  73 SE12G17   29.93F
FORT MADISON * SUNNY     77  70  78 SE7       29.95S
KEOKUK *       CLOUDY    77  68  73 VRB6G15   29.94S
OSKALOOSA *      N/A     79  66  65 SE9       29.91F HX  81
OTTUMWA        SUNNY     79  67  66 SE10      29.91F HX  81
6HR MIN TEMP:  63; 6HR MAX TEMP:  79;

WASHINGTON *   PTSUNNY   72  70  94 SE10      29.95F
$$

ABBREVIATIONS USED IN REMARKS
   TC - TEMPERATURES IN CELSIUS
  WCI - WIND CHILL INDEX
   HX - HEAT INDEX
  VSB - VISIBILITY
$$





USA.gov is the U.S. government's official web portal to all federal, state and local government web resources and services.